Regional Weather Roundup
Issued by NWS

Home | Current Version | Previous Version | Text Only | Print | Product List | Glossary Off
Versions: 1 2 3 4 5 6 7 8 9 10 11 12 13 14 15 16 17 18 19 20 21 22 23 24 25 26 27 28 29 30 31 32 33 34 35 36 37 38 39 40 41 42 43 44 45 46 47 48 49 50

172
ASUS43 KDTX 161501
RWRMI
MICHIGAN HOURLY REGIONAL WEATHER ROUNDUP
NATIONAL WEATHER SERVICE DETROIT/PONTIAC MI
1100 AM EDT MON OCT 16 2017

NOTE: "FAIR" INDICATES FEW OR NO CLOUDS BELOW 12,000 FEET WITH NO
SIGNIFICANT WEATHER AND/OR OBSTRUCTION TO VISIBILITY.

MIZ047>049-052>055-059>063-066>070-074>076-081>083-161600-
SOUTHEAST LOWER MICHIGAN

CITY           SKY/WX    TMP DP  RH WIND       PRES   REMARKS
ADRIAN         SUNNY     50  37  61 CALM      30.31S
ALMA           SUNNY     49  37  62 S7        30.30S
ANN ARBOR      SUNNY     50  37  61 NW6       30.29S
BAD AXE        MOSUNNY   47  34  58 NW7       30.29S
CARO           SUNNY     49  30  48 N3        30.29S
DETROIT CITY   MOSUNNY   49  35  58 N8        30.30S
DETROIT        MOSUNNY   50  36  58 N8        30.30S
FLINT          SUNNY     48  33  56 VRB5      30.31R
GROSSE ILE     MOSUNNY   49  36  60 N8        30.29S
HILLSDALE      PTSUNNY   50  37  62 CALM      30.30R
HOWELL         SUNNY     48  36  63 CALM      30.29S

CITY           SKY/WX    TMP DP  RH WIND       PRES   REMARKS
JACKSON        MOSUNNY   49  34  56 VRB3      30.30S
LAMBERTVILLE   PTSUNNY   51  37  58 CALM      30.30S
LANSING        SUNNY     50  36  58 SW6       30.31R
LAPEER         FAIR      47  34  59 NW7       30.30S
MASON          SUNNY     50  38  62 W3        30.30S
MONROE         MOSUNNY   50  37  59 CALM      30.30S
MT. CLEMENS    MOSUNNY   49  33  54 NW9       30.27S
PONTIAC        MOSUNNY   47  35  63 N9        30.28S
PORT HOPE        N/A     48  36  63 NW6       30.26S
PORT HURON     MOSUNNY   48  34  57 NW9       30.29R
TRI CITIES     CLOUDY    48  34  58 VRB3      30.31R
MIDLAND        CLOUDY    47  35  63 CALM      30.30R
TROY           SUNNY     48  35  61 NW6       30.31S
SAGINAW HB     SUNNY     46  34  61 CALM      30.29S
$$
MIZ043>046-050>051-056>058-064>065-071>073-077>080-161600-
SOUTHWEST LOWER MICHIGAN

CITY           SKY/WX    TMP DP  RH WIND       PRES   REMARKS
BATTLE CREEK   CLOUDY    49  43  80 S5        30.31R
BENTON HARBOR  MOSUNNY   56  41  57 W14       30.30S
BIG RAPIDS     MOSUNNY   48  39  69 S6        30.26F
COLDWATER      PTSUNNY   49  44  81 SW3       30.31S
FREMONT        CLOUDY    46  43  91 S8        30.27F
HOLLAND        PTSUNNY   50  45  83 S5        30.29F
GRAND RAPIDS   PTSUNNY   48  42  80 S7        30.29S
IONIA          CLOUDY    49  37  61 S8        30.29S
LUDINGTON      SUNNY     47  40  76 S6        30.26F
MARSHALL       CLOUDY    47  38  69 CALM      30.30S
MOUNT PLEASANT SUNNY     50  38  62 S7        30.28S
MUSKEGON       PTSUNNY   49  45  86 SE7       30.29S
SOUTH HAVEN    MOSUNNY   54  43  65 W7        30.29S
$$
MIZ016>042-161600-
NORTHERN LOWER MICHIGAN

CITY           SKY/WX    TMP DP  RH WIND       PRES   REMARKS
ALPENA         SUNNY     45  32  60 SW7       30.27S
BEAVER ISLAND  LGT RAIN  48  41  77 S7        30.20S
BELLAIRE       SUNNY     46  37  70 S7        30.24F
CADILLAC       MOSUNNY   49  40  72 SW8       30.24S
CHARLEVOIX     SUNNY     46  39  77 S6        30.25S
FRANKFORT      PTSUNNY   50  42  74 S9        30.24S
GAYLORD        CLOUDY    41  33  73 S8        30.23S
GRAYLING       MOSUNNY   45  34  66 S9        30.25F
HARBOR SPRINGS PTSUNNY   46  35  66 S7        30.23F
HOUGHTON LAKE  MOSUNNY   45  35  68 S7        30.26F
MANISTEE       CLOUDY    48  44  86 SE3       30.26S
OSCODA         SUNNY     47  28  47 SW3       30.28R
PELLSTON       SUNNY     46  36  68 SE8       30.23S
ROGERS CITY    SUNNY     45  32  61 SW9       30.25F
TRAVERSE CITY  MOSUNNY   50  40  68 VRB5      30.24S
$$
MIZ007>008-015-161600-
EASTERN UPPER MICHIGAN

CITY           SKY/WX    TMP DP  RH WIND       PRES   REMARKS
KINROSS        SUNNY     46  38  73 S8        30.20F
MACKINAC ISLAN SUNNY     46  34  62 S15       30.21F
NEWBERRY       SUNNY     47  42  80 W12       30.18S
S. S. MARIE    MOSUNNY   44  36  73 VRB5      30.20S
MUNISING         N/A     48  40  73 SW5       30.16F
$$
MIZ004>006-011>014-085-161600-
CENTRAL UPPER MICHIGAN

CITY           SKY/WX    TMP DP  RH WIND       PRES   REMARKS
MANISTIQUE     SUNNY     49  36  60 W7        30.19S
MENOMINEE      SUNNY     46  39  76 W5        30.23F
SAWYER-GWINN   SUNNY     41  37  87 SW3       30.17
$$
MIZ001>003-009>011-084-161600-
WESTERN UPPER MICHIGAN

CITY           SKY/WX    TMP DP  RH WIND       PRES   REMARKS
IRON MOUNTAIN  SUNNY     44  36  73 SW6       30.19S
HOUGHTON       SUNNY     48  40  73 W13       30.11F
COPPER HARBOR    N/A     47  40  76 VRB6      30.09F
IRONWOOD       SUNNY     45  36  70 SW9       30.16F
$$

ABBREVIATIONS USED IN REMARKS
   TC - TEMPERATURE IN CELSIUS
  WCI - WIND CHILL INDEX
   HX - HEAT INDEX
  VSB - VISIBILITY





USA.gov is the U.S. government's official web portal to all federal, state and local government web resources and services.